Hourly Weather Hrabovets'

Today, 12 May, Wednesday

Time Temperature Precipitation Wind Pressure Humidity
00:00 +11°C° 0 mm 3 mps 733 mmHg 86%
01:00 +11°C° 0 mm 3 mps 732 mmHg 89%
02:00 +11°C° 0 mm 3 mps 732 mmHg 92%
03:00 +10°C° 0 mm 3 mps 732 mmHg 92%
04:00 +10°C° 0 mm 3 mps 731 mmHg 93%
05:00 +10°C° 0 mm 3 mps 731 mmHg 93%
06:00 +12°C° 0 mm 4 mps 731 mmHg 89%
07:00 +13°C° 0 mm 5 mps 731 mmHg 85%
08:00 +15°C° 0 mm 6 mps 731 mmHg 80%
09:00 +15°C° 0 mm 6 mps 731 mmHg 80%
10:00 +14°C° 0 mm 7 mps 731 mmHg 80%
11:00 +12°C° 0 mm 7 mps 731 mmHg 79%
12:00 +14°C° 0 mm 7 mps 731 mmHg 75%
13:00 +14°C° 0 mm 6 mps 731 mmHg 70%
14:00 +14°C° 0 mm 6 mps 731 mmHg 65%
15:00 +14°C° 0 mm 6 mps 731 mmHg 63%
16:00 +14°C° 0 mm 6 mps 730 mmHg 62%
17:00 +14°C° 0 mm 5 mps 730 mmHg 61%
18:00 +13°C° 0 mm 5 mps 730 mmHg 66%
19:00 +10°C° 0 mm 5 mps 730 mmHg 71%
20:00 +9°C° 0 mm 5 mps 730 mmHg 77%
21:00 +8°C° 0 mm 5 mps 729 mmHg 79%
22:00 +7°C° 0 mm 4 mps 729 mmHg 82%
23:00 +6°C° 0 mm 4 mps 729 mmHg 85%

Tomorrow, 13 May, Thursday

Time Temperature Precipitation Wind Pressure Humidity
00:00 +6°C° 0 mm 4 mps 728 mmHg 86%
01:00 +5°C° 0 mm 4 mps 728 mmHg 87%
02:00 +5°C° 0 mm 4 mps 727 mmHg 87%
03:00 +5°C° 0 mm 4 mps 727 mmHg 88%
04:00 +4°C° 0 mm 4 mps 726 mmHg 89%
05:00 +4°C° 0 mm 4 mps 726 mmHg 91%
06:00 +6°C° 0 mm 5 mps 726 mmHg 86%
07:00 +8°C° 0 mm 6 mps 726 mmHg 82%
08:00 +9°C° 0 mm 7 mps 725 mmHg 78%
09:00 +9°C° 0 mm 7 mps 725 mmHg 80%
10:00 +9°C° 0 mm 7 mps 725 mmHg 82%
11:00 +9°C° 0 mm 6 mps 725 mmHg 84%
12:00 +11°C° 0.1 mm 6 mps 725 mmHg 80%
13:00 +13°C° 0.1 mm 6 mps 724 mmHg 76%
14:00 +15°C° 0.1 mm 6 mps 724 mmHg 72%
15:00 +15°C° 0.2 mm 6 mps 724 mmHg 76%
16:00 +14°C° 0.2 mm 6 mps 724 mmHg 79%
17:00 +14°C° 0.2 mm 6 mps 723 mmHg 82%
18:00 +13°C° 0.2 mm 5 mps 724 mmHg 86%
19:00 +12°C° 0.2 mm 5 mps 724 mmHg 89%
20:00 +11°C° 0.2 mm 4 mps 724 mmHg 93%
21:00 +11°C° 0 mm 4 mps 724 mmHg 93%
22:00 +10°C° 0 mm 5 mps 724 mmHg 93%
23:00 +10°C° 0 mm 5 mps 724 mmHg 93%

Day after tomorrow, 14 May, Friday

Time Temperature Precipitation Wind Pressure Humidity
00:00 +10°C° 0 mm 4 mps 724 mmHg 95%
01:00 +10°C° 0 mm 4 mps 724 mmHg 96%
02:00 +10°C° 0 mm 3 mps 724 mmHg 97%
03:00 +9°C° 0 mm 3 mps 724 mmHg 96%
04:00 +9°C° 0 mm 3 mps 724 mmHg 95%
05:00 +9°C° 0 mm 2 mps 724 mmHg 93%
06:00 +11°C° 0 mm 3 mps 725 mmHg 87%
07:00 +12°C° 0 mm 3 mps 725 mmHg 80%
08:00 +14°C° 0 mm 3 mps 725 mmHg 74%
09:00 +16°C° 0.3 mm 3 mps 725 mmHg 70%
10:00 +17°C° 0.3 mm 4 mps 725 mmHg 67%
11:00 +18°C° 0.3 mm 4 mps 726 mmHg 63%
12:00 +17°C° 0.8 mm 4 mps 726 mmHg 67%
13:00 +17°C° 0.8 mm 4 mps 726 mmHg 71%
14:00 +15°C° 0.8 mm 4 mps 726 mmHg 74%
15:00 +15°C° 0.4 mm 4 mps 726 mmHg 76%
16:00 +14°C° 0.4 mm 4 mps 727 mmHg 79%
17:00 +13°C° 0.4 mm 5 mps 727 mmHg 81%
18:00 +12°C° 0 mm 4 mps 727 mmHg 83%
19:00 +11°C° 0 mm 4 mps 728 mmHg 86%
20:00 +10°C° 0 mm 3 mps 728 mmHg 88%
21:00 +10°C° 0 mm 3 mps 728 mmHg 88%
22:00 +9°C° 0 mm 3 mps 728 mmHg 89%
23:00 +9°C° 0 mm 2 mps 728 mmHg 89%

15 May, Saturday

Time Temperature Precipitation Wind Pressure Humidity
00:00 +9°C° 0 mm 2 mps 729 mmHg 89%
01:00 +9°C° 0 mm 3 mps 729 mmHg 89%
02:00 +9°C° 0 mm 3 mps 729 mmHg 89%
03:00 +9°C° 0 mm 2 mps 729 mmHg 89%
04:00 +8°C° 0 mm 2 mps 729 mmHg 89%
05:00 +8°C° 0 mm 2 mps 729 mmHg 89%
06:00 +10°C° 0 mm 2 mps 729 mmHg 84%
07:00 +12°C° 0 mm 2 mps 730 mmHg 79%
08:00 +13°C° 0 mm 2 mps 730 mmHg 74%
09:00 +15°C° 0 mm 2 mps 730 mmHg 69%
10:00 +16°C° 0 mm 2 mps 730 mmHg 64%
11:00 +17°C° 0 mm 2 mps 730 mmHg 59%
12:00 +18°C° 0.1 mm 2 mps 730 mmHg 57%
13:00 +18°C° 0.1 mm 2 mps 729 mmHg 55%
14:00 +19°C° 0.1 mm 2 mps 729 mmHg 53%
15:00 +19°C° 0 mm 2 mps 729 mmHg 53%
16:00 +19°C° 0 mm 2 mps 729 mmHg 54%
17:00 +20°C° 0 mm 1 mps 729 mmHg 55%
18:00 +18°C° 0 mm 1 mps 729 mmHg 61%
19:00 +16°C° 0 mm 2 mps 729 mmHg 68%
20:00 +14°C° 0 mm 2 mps 729 mmHg 74%
21:00 +13°C° 0 mm 2 mps 729 mmHg 75%
22:00 +13°C° 0 mm 2 mps 729 mmHg 76%
23:00 +12°C° 0 mm 2 mps 729 mmHg 77%

16 May, Sunday

Time Temperature Precipitation Wind Pressure Humidity
00:00 +12°C° 0 mm 2 mps 729 mmHg 78%
01:00 +10°C° 0 mm 2 mps 729 mmHg 80%
02:00 +10°C° 0 mm 2 mps 729 mmHg 81%
03:00 +10°C° 0 mm 3 mps 728 mmHg 82%
04:00 +9°C° 0 mm 3 mps 728 mmHg 83%
05:00 +9°C° 0 mm 3 mps 728 mmHg 84%
06:00 +11°C° 0 mm 3 mps 728 mmHg 82%
07:00 +12°C° 0 mm 4 mps 728 mmHg 79%
08:00 +14°C° 0 mm 5 mps 728 mmHg 76%
09:00 +14°C° 0.5 mm 4 mps 728 mmHg 78%
10:00 +15°C° 0.5 mm 4 mps 728 mmHg 79%
11:00 +15°C° 0.5 mm 4 mps 728 mmHg 81%
12:00 +17°C° 0.4 mm 4 mps 728 mmHg 78%
13:00 +17°C° 0.4 mm 4 mps 728 mmHg 75%
14:00 +18°C° 0.4 mm 4 mps 727 mmHg 72%
15:00 +18°C° 0.3 mm 4 mps 727 mmHg 73%
16:00 +18°C° 0.3 mm 4 mps 727 mmHg 74%
17:00 +18°C° 0.3 mm 4 mps 727 mmHg 75%
18:00 +17°C° 0.7 mm 4 mps 727 mmHg 81%
19:00 +16°C° 0.7 mm 3 mps 726 mmHg 87%
20:00 +14°C° 0.7 mm 3 mps 726 mmHg 92%
21:00 +14°C° 1.1 mm 2 mps 726 mmHg 94%
22:00 +14°C° 1.1 mm 2 mps 726 mmHg 95%
23:00 +13°C° 1.1 mm 2 mps 726 mmHg 97%

17 May, Monday

Time Temperature Precipitation Wind Pressure Humidity
00:00 +13°C° 0.1 mm 1 mps 726 mmHg 96%
01:00 +13°C° 0.1 mm 1 mps 726 mmHg 96%
02:00 +12°C° 0.1 mm 1 mps 726 mmHg 95%
03:00 +12°C° 0 mm 1 mps 726 mmHg 95%
04:00 +13°C° 0 mm 1 mps 726 mmHg 95%
05:00 +13°C° 0 mm 1 mps 726 mmHg 95%
06:00 +13°C° 0 mm 2 mps 727 mmHg 94%
07:00 +13°C° 0 mm 3 mps 727 mmHg 92%
08:00 +13°C° 0 mm 3 mps 727 mmHg 91%
09:00 +13°C° 0 mm 4 mps 727 mmHg 90%
10:00 +13°C° 0 mm 4 mps 727 mmHg 89%
11:00 +14°C° 0 mm 4 mps 727 mmHg 88%
12:00 +15°C° 0.2 mm 5 mps 727 mmHg 84%
13:00 +15°C° 0.2 mm 5 mps 727 mmHg 80%
14:00 +16°C° 0.2 mm 6 mps 727 mmHg 76%
15:00 +16°C° 0.4 mm 6 mps 727 mmHg 77%
16:00 +16°C° 0.4 mm 5 mps 727 mmHg 77%
17:00 +16°C° 0.4 mm 5 mps 728 mmHg 78%
18:00 +15°C° 0.1 mm 4 mps 728 mmHg 82%
19:00 +13°C° 0.1 mm 3 mps 728 mmHg 86%
20:00 +12°C° 0.1 mm 3 mps 728 mmHg 90%
21:00 +13°C° 0 mm 2 mps 728 mmHg 90%
22:00 +12°C° 0 mm 2 mps 728 mmHg 90%
23:00 +11°C° 0 mm 1 mps 728 mmHg 90%
Show more

We Need Your Consent

Meteoprog and our Service Providers may store and access personal data such as cookies, device identifiers or other similar technologies on your device and process such data to personalise content and ads, as well as provide social media features and to analyse the traffic.

  • Store and/or access information on your device

    Cookies, device identifiers or other information can be stored or accessed on your device for the purposes indicated above.

  • Personalised ads and content, ad and content measurement, audience insights, and products development

    Ads and content can be personalised based on a profile. More data can be added to better personalise ads and content. Ad and content performance can be measured. Insights about the audience who saw the ads and content can be derived. Such data can be used to develop or improve user’s experience, systems and software.

By clicking ‘I Agree’ you will allow the use of indicated cookies, device identifiers, web beacons or other similar technologies. Your settings can be changed in the browser on your device.

For certain purposes, legitimate interests may be relied on, rather than consent. You can read more about this in our Privacy and Cookie Policy.